IRIDIUM 33 DEB, 40998

Orbit data source: Space-Track

IRIDIUM 33 DEB, 40998 is space debris in LEO originally from a launch on Sun, 14 Sep 1997 UTC launched from the Tyuratam Missile And Space Complex (TTMTR). The debris from Iridium 33, an American commercial communications satellite, has been tracked extensively since its accidental collision with the defunct Russian satellite Cosmos 2251 in 2009. This event, occurring at high speed in low Earth orbit (LEO), generated thousands of pieces of space debris, significantly increasing the risk of further collisions. The Iridium 33 debris cloud has impacted space traffic management and orbital debris mitigation strategies, making it a subject of ongoing study in space situational awareness.

Loading next visibility...
Identifier
40998, 1997-051ABL
Orbit
LEO
Country
Flag of USUS
Related business
Manufacturer
Unknown
Mission
Spacecraft
Bus & Motor
Unknown
Mass
Unknown
Launch date (UTC)
1997-09-14 (29 years ago)
Launch vehicle
Unknown
Launch site
Tyuratam Missile And Space Complex (TTMTR)
Object type
Payload
Rocket body
Debris
Shape & HBR
Unknown shape, 0.1 m
Radar Cross Section
Small (<0.1 m²)

Expand to show TLE details & history
Last TLE update: 3 days ago

TLE from 3 days ago
0 IRIDIUM 33 DEB
1 40998U 97051ABL 26167.25341759  .00001278  00000-0  35504-3 0  9998
2 40998  86.3823 334.3825 0007860 166.7675 317.4325 14.45750526 93612
Epoch: 2026-06-16T06:04Z
TLE epoch observation values (Epoch: 2026-06-16T06:04:55.279Z)
Latitude
55.79176°
Longitude
153.31625°
Altitude
744.82 km
Speed
7.49 km/s
True Right ascension
09h 56m 17s
True Declination
55° 37' 53"
Sunlit
Object was in daylight at epoch
Visualization orbit readout
Latitude
Unknown
Longitude
Unknown
Altitude
Unknown
Speed
Unknown
Apparent Right ascension
Unknown
Apparent Declination
Unknown
Sunlit
N/A
Visualization observer readout
Local Sidereal Time
13:08:36
Azimuth
Unknown
Elevation
Unknown
Doppler factor
Unknown
Orbital elements
Apogee altitude
742.102 km
Perigee altitude
730.918 km
Semi-major axis
7,114.647 km
Eccentricity
0.00079
Inclination
86.3823°
RAAN
334.3825°
Arg. of periapsis
166.7675°
True anomaly
317.37153°
Mean anomaly
317.4325°
Eccentric anomaly
317.40202°
Mean motion
3.61671 °/min
Orbital period
99.54 mins
BSTAR
0.00035504

Documentation

Showing up to 5 results
|